CW8553 Weather Reports


Display with metric or nautical units.
time (UTC)temp
F
wind
direction
speed
MPH
gust
MPH
rain 1hr
in
rain 24hr
in
rain mn
in
humidity
%
barometer
mb
20260905183045 62 42 0.0 1.0 0.00 0.00 0.00 75 1018.2
20260905181601 61 0 0.0 3.0 0.00 0.00 0.00 77 1018.3
20260905180043 61 91 0.0 3.0 0.00 0.00 0.00 79 1018.4
20260905174551 60 0 1.0 4.0 0.00 0.00 0.00 77 1018.3
20260905173045 61 0 0.0 3.0 0.00 0.00 0.00 76 1018.2
20260905171545 61 0 0.0 4.0 0.00 0.00 0.00 77 1018.1
20260905170044 60 0 0.0 2.0 0.00 0.00 0.00 79 1018.0
20260905164548 60 0 0.0 3.0 0.00 0.01 0.00 78 1018.0
20260905163047 58 0 0.0 2.0 0.00 0.01 0.00 81 1017.9
20260905161544 57 0 0.0 3.0 0.00 0.01 0.00 83 1017.8
20260905160109 56 0 0.0 1.0 0.00 0.01 0.00 86 1017.8
20260905154550 56 0 0.0 2.0 0.00 0.01 0.00 86 1017.8
20260905153046 55 0 0.0 2.0 0.00 0.01 0.00 88 1018.0
20260905151546 54 107 0.0 2.0 0.00 0.01 0.00 90 1018.0
20260905150048 53 109 1.0 2.0 0.00 0.01 0.00 91 1017.9
20260905144546 52 0 0.0 2.0 0.00 0.01 0.00 92 1017.6
20260905143047 52 130 0.0 1.0 0.00 0.01 0.00 93 1017.5
20260905141544 51 0 0.0 0.0 0.00 0.01 0.00 93 1017.3
20260905140046 51 0 0.0 0.0 0.00 0.01 0.00 93 1017.3
20260905134547 51 0 0.0 0.0 0.00 0.01 0.00 93 1017.2
20260905133045 51 0 0.0 0.0 0.00 0.01 0.00 93 1017.3
20260905131543 51 0 0.0 0.0 0.00 0.01 0.00 93 1017.1
20260905130048 51 0 0.0 0.0 0.00 0.01 0.00 93 1017.2
20260905124550 51 0 0.0 0.0 0.00 0.01 0.00 93 1017.2
20260905123046 50 0 0.0 0.0 0.00 0.01 0.00 93 1017.1
20260905121548 50 0 0.0 0.0 0.00 0.01 0.00 92 1017.1
20260905120050 50 0 0.0 0.0 0.00 0.01 0.00 92 1017.1
20260905114545 50 0 0.0 0.0 0.00 0.01 0.00 92 1017.1
20260905113043 50 0 0.0 0.0 0.00 0.01 0.00 91 1017.0
20260905111605 50 0 0.0 0.0 0.00 0.01 0.00 91 1016.8
20260905110045 51 0 0.0 0.0 0.00 0.01 0.00 91 1016.8
20260905104544 51 0 0.0 0.0 0.00 0.01 0.00 91 1016.9
20260905103049 51 0 0.0 0.0 0.00 0.01 0.00 91 1016.7
20260905101547 52 0 0.0 1.0 0.00 0.01 0.00 92 1016.7
20260905100051 52 0 0.0 1.0 0.00 0.01 0.00 92 1016.5
20260905094547 52 0 0.0 0.0 0.00 0.01 0.00 91 1016.5
20260905093043 52 0 0.0 0.0 0.00 0.01 0.00 90 1016.7
20260905091615 52 0 0.0 1.0 0.00 0.01 0.00 90 1016.6
20260905090049 52 0 0.0 1.0 0.00 0.01 0.00 90 1016.5
20260905084547 53 0 0.0 0.0 0.00 0.01 0.00 89 1016.5
20260905083045 53 0 0.0 0.0 0.00 0.01 0.00 90 1016.4
20260905081538 53 0 0.0 1.0 0.00 0.01 0.00 89 1016.3
20260905080053 53 127 0.0 0.0 0.00 0.01 0.00 88 1016.3
20260905074544 54 0 0.0 0.0 0.00 0.02 0.00 87 1016.4
20260905073050 54 0 0.0 0.0 0.00 0.02 0.00 86 1016.4
20260905071550 54 0 0.0 0.0 0.00 0.02 0.00 85 1016.3
20260905070046 55 0 0.0 0.0 0.00 0.02 0.00 85 1016.2
20260905064544 56 0 0.0 0.0 0.00 0.03 0.02 84 1016.1
20260905063042 56 0 0.0 0.0 0.00 0.03 0.02 83 1015.9
20260905061612 57 0 0.0 0.0 0.00 0.03 0.02 82 1015.7
20260905060046 57 0 0.0 2.0 0.00 0.03 0.02 82 1015.5
20260905054545 58 0 0.0 1.0 0.00 0.03 0.02 81 1015.5
20260905053045 58 0 0.0 0.0 0.00 0.03 0.02 80 1015.6
20260905051548 58 0 0.0 0.0 0.00 0.03 0.02 80 1015.7
20260905050047 58 0 0.0 1.0 0.00 0.03 0.02 79 1015.6
20260905044546 59 0 0.0 1.0 0.00 0.03 0.02 79 1015.7
20260905043042 59 0 0.0 0.0 0.00 0.03 0.02 78 1015.7
20260905041552 59 0 0.0 0.0 0.00 0.03 0.02 77 1015.7
20260905040045 60 0 0.0 0.0 0.00 0.03 0.02 75 1015.7
20260905034553 60 0 0.0 0.0 0.00 0.03 0.02 74 1015.6
20260905033042 61 0 0.0 1.0 0.00 0.03 0.02 73 1015.5
20260905031546 61 118 0.0 1.0 0.00 0.03 0.02 71 1015.4
20260905030044 62 0 0.0 1.0 0.00 0.03 0.02 69 1015.2
20260905024544 62 0 0.0 2.0 0.00 0.04 0.02 67 1015.1
20260905023043 63 147 1.0 3.0 0.00 0.04 0.02 66 1015.1
20260905021551 63 131 0.0 3.0 0.00 0.04 0.02 65 1015.0
20260905020045 64 128 0.0 4.0 0.00 0.04 0.02 64 1015.1
20260905014544 65 198 0.0 6.0 0.00 0.05 0.02 62 1015.1
20260905013050 66 0 0.0 3.0 0.00 0.05 0.02 60 1014.9
20260905011549 67 164 0.0 2.0 0.00 0.05 0.02 59 1014.6
20260905010046 68 0 0.0 6.0 0.00 0.05 0.02 58 1014.4
20260905004549 68 0 0.0 5.0 0.00 0.05 0.02 57 1014.3
20260905003043 69 192 0.0 3.0 0.00 0.05 0.02 60 1014.3
20260905001557 69 113 1.0 3.0 0.00 0.05 0.02 54 1014.1
20260905000048 69 0 0.0 3.0 0.00 0.05 0.02 53 1014.0
20260904234545 70 114 2.0 6.0 0.00 0.05 0.02 52 1014.0
20260904233044 71 342 0.0 3.0 0.00 0.05 0.02 50 1014.0
20260904231555 70 0 0.0 4.0 0.00 0.05 0.02 54 1014.0
20260904230049 68 0 0.0 2.0 0.00 0.05 0.02 59 1013.9
20260904224551 70 257 1.0 8.0 0.00 0.05 0.02 56 1013.7
20260904223057 70 280 0.0 3.0 0.00 0.05 0.02 60 1013.7
20260904221548 68 16 1.0 3.0 0.00 0.05 0.02 59 1013.7
20260904220046 69 0 0.0 3.0 0.00 0.05 0.02 62 1013.5
20260904214544 68 0 1.0 6.0 0.00 0.05 0.02 64 1013.5
20260904213043 68 273 0.0 4.0 0.00 0.05 0.02 63 1013.6
20260904211543 67 241 0.0 5.0 0.00 0.05 0.02 67 1013.4
20260904210058 66 300 0.0 5.0 0.00 0.05 0.02 72 1013.5
20260904204549 67 277 1.0 4.0 0.00 0.05 0.02 68 1013.4
20260904203043 65 0 0.0 5.0 0.00 0.05 0.02 71 1013.5
20260904201542 65 241 0.0 5.0 0.00 0.05 0.02 73 1013.5
20260904200046 63 0 0.0 3.0 0.00 0.05 0.02 74 1013.6
20260904194546 64 282 0.0 4.0 0.00 0.05 0.02 76 1013.6
20260904193055 63 244 0.0 4.0 0.00 0.05 0.02 77 1013.6
20260904191554 63 258 1.0 6.0 0.00 0.05 0.02 78 1013.6
20260904190048 62 0 0.0 6.0 0.00 0.05 0.02 81 1013.7
20260904184545 62 0 0.0 3.0 0.00 0.05 0.02 79 1013.6